User: anonymous   Login
Location: Unspecified
(0.0000°N, 0.0000°E)
Time: 21:06:48
(UTC+00:00)
Language:

HORYU 4 - Orbit

View from above orbital plane
View from above orbital plane
View from above satellite
View from above satellite

Ground track
Ground track

The orbit data is extracted from the following two-line orbital elements,

1 41340U 16012D   22267.88574559  .00004452  00000-0  30928-3 0  9992
2 41340  31.0041  83.8723 0012869 109.7034 250.4992 15.03836749362709
Epoch (UTC): 24 September 2022 21:15:28
Eccentricity: 0.0012869
inclination: 31.0041°
perigee height: 546 km
apogee height: 564 km
right ascension of ascending node: 83.8723°
argument of perigee: 109.7034°
revolutions per day: 15.03836749
mean anomaly at epoch: 250.4992°
orbit number at epoch: 36270

The dashed part of the orbit path shows where the satellite is in the earth's shadow,  

DLR